Location: York
(31.8935°S, 116.7682°E)
Time: 17:20:01
(UTC+08:00)

deb Explorer IX - Pass Details

Date: 03 October 2022
Orbit: 533 x 1057 km, 38.8° (Epoch: 30 November)

Event Time Altitude Azimuth Distance (km) Brightness Sun altitude
Rises 15:30:33 0° 343° (NNW) 3,793 ? 33.8°
Reaches altitude 10° 15:34:18 10° 1° (N) 2,797 ? 33.1°
Maximum altitude 15:38:33 18° 40° (NE) 2,222 ? 32.2°
Drops below altitude 10° 15:42:34 10° 79° (E) 2,626 ? 31.4°
Sets 15:45:55 0° 98° (E) 3,471 ? 30.7°
